Location: Brahman Valley
(40.6513°N, 111.8855°W)
Time: 03:07:22
(UTC+00:00)

Tiros 1 - All Passes

Search period start: 12 May 2021 00:00
Search period end: 22 May 2021 00:00
Orbit: 630 x 664 km, 48.4° (Epoch: 11 May)

Date Brightness Start Highest point End Pass type
(mag) Time Alt. Az. Time Alt. Az. Time Alt. Az.
12 May - 07:01:57 10° SSW 07:05:56 27° SE 07:09:56 10° E visible
12 May - 08:43:03 10° WSW 08:47:51 73° NNW 08:52:37 10° ENE visible
12 May - 10:26:14 10° WNW 10:30:35 34° N 10:34:55 10° ENE visible
12 May - 12:09:11 10° NW 12:13:37 37° NNE 12:18:00 10° E daylight
12 May - 13:51:25 10° WNW 13:56:10 83° SSW 14:00:50 10° SE daylight
12 May - 15:34:48 10° W 15:37:48 17° SW 15:40:45 10° S daylight
13 May - 05:49:28 10° SE 05:50:14 10° SE 05:51:01 10° ESE night (unlit)
13 May - 07:26:58 10° SW 07:31:40 56° SE 07:36:21 10° ENE visible
13 May - 09:09:24 10° W 09:14:00 45° NNW 09:18:35 10° NE visible
13 May - 10:52:41 10° WNW 10:56:58 32° N 11:01:13 10° ENE visible
13 May - 12:35:12 10° NW 12:39:52 54° NNE 12:44:28 10° E daylight
13 May - 14:17:35 10° WNW 14:22:01 40° SW 14:26:21 10° SSE daylight
14 May - 06:11:52 10° S 06:15:44 24° SE 06:19:37 10° E visible
14 May - 07:52:47 10° WSW 07:57:36 77° NNW 08:02:24 10° ENE visible
14 May - 09:35:55 10° WNW 09:40:18 34° N 09:44:40 10° ENE visible
14 May - 11:18:55 10° NW 11:23:21 36° NNE 11:27:43 10° E visible
14 May - 13:01:10 10° WNW 13:05:56 88° SW 13:10:37 10° ESE daylight
14 May - 14:44:23 10° W 14:47:37 19° SW 14:50:50 10° S daylight
15 May - 06:36:47 10° SW 06:41:26 52° SE 06:46:05 10° ENE visible
15 May - 08:19:05 10° W 08:23:44 47° NNW 08:28:21 10° NE visible
15 May - 10:02:23 10° WNW 10:06:41 32° N 10:10:57 10° ENE visible
15 May - 11:44:57 10° NW 11:49:36 51° NNE 11:54:12 10° E daylight
15 May - 13:27:18 10° WNW 13:31:47 44° SW 13:36:13 10° SSE daylight
16 May - 05:21:49 10° S 05:25:32 23° SE 05:29:15 10° E night (unlit)
16 May - 07:02:31 10° WSW 07:07:21 82° NNW 07:12:10 10° ENE visible
16 May - 08:45:36 10° WNW 08:50:01 35° N 08:54:25 10° ENE visible
16 May - 10:28:39 10° WNW 10:33:04 36° N 10:37:26 10° ENE visible
16 May - 12:10:55 10° WNW 12:15:42 86° NNE 12:20:24 10° ESE daylight
16 May - 13:53:58 10° W 13:57:26 20° SW 14:00:51 10° S daylight
17 May - 05:46:36 10° SW 05:51:13 48° SE 05:55:50 10° ENE visible
17 May - 07:28:47 10° W 07:33:28 49° NNW 07:38:08 10° NE visible
17 May - 09:12:05 10° WNW 09:16:24 32° N 09:20:41 10° ENE visible
17 May - 10:54:42 10° NW 10:59:21 49° NNE 11:03:56 10° E visible
17 May - 12:37:01 10° WNW 12:41:35 48° SW 12:46:05 10° SE daylight
18 May - 04:31:47 10° S 04:35:20 21° SE 04:38:53 10° E night (unlit)
18 May - 06:12:16 10° WSW 06:17:06 87° NNW 06:21:56 10° ENE visible
18 May - 07:55:17 10° WNW 07:59:44 36° N 08:04:10 10° ENE visible
18 May - 09:38:22 10° WNW 09:42:47 35° N 09:47:09 10° ENE visible
18 May - 11:20:40 10° WNW 11:25:27 81° NNE 11:30:11 10° ESE visible
18 May - 13:03:35 10° W 13:07:15 22° SW 13:10:51 10° S daylight
19 May - 04:56:26 10° SSW 05:00:59 44° SE 05:05:34 10° ENE visible
19 May - 06:38:29 10° W 06:43:11 52° NNW 06:47:53 10° NE visible
19 May - 08:21:47 10° WNW 08:26:07 32° N 08:30:24 10° ENE visible
19 May - 10:04:26 10° NW 10:09:05 47° NNE 10:13:39 10° E visible
19 May - 11:46:44 10° WNW 11:51:21 52° SW 11:55:56 10° SE daylight
20 May - 03:41:47 10° S 03:45:08 19° SE 03:48:30 10° E visible
20 May - 05:22:01 10° WSW 05:26:51 88° SSE 05:31:41 10° ENE visible
20 May - 07:04:58 10° W 07:09:27 37° NNW 07:13:55 10° NE visible
20 May - 08:48:05 10° WNW 08:52:29 34° N 08:56:51 10° ENE visible
20 May - 10:30:24 10° WNW 10:35:13 77° NNE 10:39:57 10° ESE visible
20 May - 12:13:14 10° W 12:17:03 24° SW 12:20:50 10° S daylight
21 May - 04:06:17 10° SSW 04:10:46 41° SE 04:15:17 10° ENE visible
21 May - 05:48:11 10° W 05:52:55 54° NNW 05:57:39 10° NE visible
21 May - 07:31:29 10° WNW 07:35:49 32° N 07:40:08 10° ENE visible
21 May - 09:14:11 10° NW 09:18:48 45° NNE 09:23:23 10° E visible
21 May - 10:56:28 10° WNW 11:01:09 56° SW 11:05:46 10° SE visible
21 May - 12:42:01 10° WSW 12:42:32 10° SW 12:43:03 10° SW daylight
